Flag for Malta Weather past 2 weeks in Valletta, Malta

Now
73 °F

Clear.


Feels Like: 74 °F
Forecast: 72 / 89 °F
Wind: 7 mph from West

Location: Luqa

Current Time: Jul 29, 2014 at 12:00:47 AM

Latest Report: Jul 28, 2014 at 10:45 PM


Visibility: 10 mi

Pressure: 29.95 "Hg

Humidity: 78%

Dew point: 66 °F

Location of VallettaLocation

Historic Weather in Valletta — Graph

°F

Valletta temperature yesterday

Maximum temperature yesterday: 88 °F (at 12:45 PM)
Minimum temperature yesterday: 73 °F (at 2:15 AM)
Average temperature yesterday: 79 °F

Past Weeks' High & Low Weather Summary

 TemperatureHumidityPressure
High91 °F (Jul 21, 1:15 PM)94% (Jul 19, 3:15 AM)30.04 "Hg (Jul 19, 3:15 AM)
Low70 °F (Jul 14, 2:15 AM)20% (Jul 21, 2:15 PM)29.86 "Hg (Jul 22, 5:15 PM)
Average78 °F65%29.96 "Hg
* Reported Jul 13 10:15 PM — Jul 28 10:45 PM, Valletta, Weather by CustomWeather, © 2014

Note: Actual official high and low records may vary slightly from our data, if they occured in-between our weather recording intervals... More about our weather records

Advertising

Valletta weather history for previous 24 hours

 ConditionsComfort  
Time TempWeatherWind HumidityBarometerVisibility
10:45 PM
Jul 28
73 °FClear.7 mph78%29.95 "Hg10 mi
9:45 PM73 °FClear.2 mph74%29.92 "Hg10 mi
9:15 PM73 °FClear.13 mph78%29.92 "Hg10 mi
8:45 PM75 °FPassing clouds.13 mph78%29.92 "HgN/A
8:15 PM75 °FPassing clouds.12 mph74%29.92 "HgN/A
7:45 PM77 °FSunny.12 mph69%29.92 "Hg10 mi
7:15 PM79 °FSunny.13 mph58%29.92 "Hg10 mi
6:45 PM81 °FSunny.12 mph58%29.92 "Hg10 mi
6:15 PM82 °FSunny.13 mph48%29.92 "Hg10 mi
5:45 PM84 °FPassing clouds.12 mph45%29.92 "HgN/A
5:15 PM84 °FSunny.12 mph43%29.92 "Hg10 mi
4:45 PM86 °FPassing clouds.12 mph38%29.95 "HgN/A
4:15 PM86 °FPassing clouds.14 mph38%29.95 "HgN/A
3:45 PM86 °FPassing clouds.12 mph38%29.95 "HgN/A
3:15 PM86 °FPassing clouds.14 mph40%29.95 "HgN/A
2:45 PM86 °FPassing clouds.14 mph35%29.95 "HgN/A
2:15 PM86 °FPassing clouds.13 mph40%29.95 "HgN/A
1:45 PM86 °FSunny.13 mph35%29.95 "Hg10 mi
1:15 PM86 °FPassing clouds.12 mph33%29.98 "HgN/A
12:45 PM88 °FPassing clouds.13 mph31%29.98 "HgN/A
12:15 PM86 °FPassing clouds.8 mph52%29.98 "HgN/A
11:45 AM86 °FPassing clouds.6 mph52%29.98 "HgN/A
11:15 AM84 °FPassing clouds.7 mph55%29.98 "HgN/A
10:45 AM84 °FPassing clouds.9 mph55%29.98 "HgN/A
10:15 AM82 °FPassing clouds.8 mph58%29.98 "HgN/A
9:45 AM81 °FPassing clouds.10 mph62%29.95 "HgN/A
9:15 AM81 °FPassing clouds.13 mph66%29.95 "HgN/A
8:45 AM79 °FPassing clouds.10 mph70%29.95 "HgN/A
8:15 AM77 °FPassing clouds.10 mph74%29.95 "HgN/A
7:45 AM75 °FPassing clouds.12 mph83%29.95 "HgN/A
7:15 AM75 °FSunny.9 mph83%29.95 "Hg10 mi
6:45 AM73 °FClear.8 mph89%29.92 "Hg10 mi
6:15 AM73 °FClear.9 mph83%29.92 "Hg10 mi
5:45 AM73 °FClear.12 mph83%29.92 "Hg10 mi
5:15 AM73 °FClear.12 mph83%29.92 "Hg10 mi
4:45 AM73 °FClear.13 mph83%29.92 "Hg10 mi
4:15 AM73 °FClear.9 mph74%29.92 "Hg10 mi
3:45 AM73 °FClear.10 mph74%29.92 "Hg10 mi
3:15 AM73 °FClear.12 mph78%29.92 "Hg10 mi
2:45 AM73 °FClear.12 mph78%29.92 "Hg10 mi
2:15 AM73 °FClear.10 mph74%29.92 "Hg10 mi
1:15 AM75 °FClear.13 mph65%29.95 "Hg10 mi
12:45 AM75 °FClear.12 mph61%29.95 "Hg10 mi
12:15 AM77 °FClear.10 mph57%29.95 "Hg10 mi
Weather by CustomWeather, © 2014

See weather overviewHow to use our weather pages